Location: �perlecques
(50.8057°N, 2.1521°E)
Time: 02:39:11
(UTC+00:00)

ITAMSAT 1 - Pass Details

Date: 07 April 2023
Orbit: 782 x 797 km, 98.8° (Epoch: 07 June)

Event Time Altitude Azimuth Distance (km) Brightness Sun altitude
Rises 18:56:27 0° 153° (SSE) 3,284 10.5 -4.4°
Reaches altitude 10° 18:58:46 10° 151° (SSE) 2,360 9.7 -4.7°
Maximum altitude 19:03:56 66° 70° (ENE) 869 7.7 -5.5°
Drops below altitude 10° 19:09:09 10° 349° (N) 2,381 10.6 -6.3°
Sets 19:11:30 0° 347° (NNW) 3,316 11.4 -6.6°
